Location: Bakhuizen
(52.8696°N, 5.4575°E)
Time: 23:15:51
(UTC+00:00)

Cosmos 1975 - Pass Details

Date: 11 May 2021
Orbit: 541 x 560 km, 82.5° (Epoch: 24 June)

Event Time Altitude Azimuth Distance (km) Brightness Sun altitude
Rises 22:53:11 0° 346° (NNW) 2,720 8.1 -18.4°
Reaches altitude 10° 22:55:22 10° 343° (NNW) 1,821 6.7 -18.5°
Maximum altitude 22:59:18 61° 264° (W) 623 3.0 -18.6°
Enters shadow 23:00:23 42° 205° (SSW) 780 3.2 -18.6°
